7 * 24
多渠道服务支持
STARLINK-11296 是 SpaceX Starlink 卫星互联网项目中的一个组成部分,属于低轨卫星通信网络,旨在为全球用户提供高速互联网服务。该卫星于2023年发射,运行在约550公里高度的近地轨道,采用先进推进系统和激光通信技术,以提升网络效率与稳定性。Starlink 项目由数千颗卫星组成,致力于改善偏远地区网络接入,同时支持应急通信和商业应用。
美国
(US)
| 数据来源 | 国际轨道数据 |
| 星历时间: | 2025-12-14T20:51:09+0800 1天前 查看轨道信息 |
| 半长轴: | 6737.83km |
| 偏心率: | 0.000089 |
| 轨道倾角: | 53.160° |
| 近地点辐角 | 88.563° |
| 升交点赤经 | 85.712° |
| 平近点角 | 271.549° |
| 近地点: | 359.095km |
| 远地点: | 360.295km |
| 周期: | 91.736分钟 |
| 每日圈数: | 15.697219 |